sat.trackr.live / text

‹ back to catalog

CS1

NORAD 49261 · 2021-088B

PAYLOAD ACTIVE UNKNOWN

§ Identity

Operator
Country
US
Launch date
2021-09-27
Launch site
AFWTR
Launch vehicle
Mass (kg)
RCS (m²)

External: N2YO · Heavens-Above · Gunter

§ Orbital elements

Epoch: 2026-05-25T02:55:39.681120Z

Period
93.87 min
Inclination
97.3780°
Eccentricity
0.0013242
Mean motion
15.33968854 rev/d
Perigee alt
454.9 km
Apogee alt
473.0 km
Semi-major
6,842.1 km
B*
4.5753e-4
RAAN
208.4063°
Arg perigee
156.5898°
Mean anomaly
203.5950°
Rev number
25,688

§ Raw data

CS11 49261U 21088B   26145.12198705  .00015010  00000+0  45753-3 0  99952 49261  97.3780 208.4063 0013242 156.5898 203.5950 15.33968854256880

JSON: /api/v1/satellites/49261 · /tle

For live sub-satellite position, see the globe view (requires WebGL).

§ Visibility from observer

Set your observer location to see the next 7 days of passes ≥ 10°. The values pass through the URL so the page stays shareable.

No JS? Fill the form by hand. The geolocation button needs JavaScript.